User: anonymous   Login
Location: Wildlife_Club
(35.6000°N, 81.4330°W)
Time: 12:48:31
(UTC-04:00)
Language:

Cosmos 1782 - Orbit

View from above orbital plane
View from above orbital plane
View from above satellite
View from above satellite

Ground track
Ground track

The orbit data is extracted from the following two-line orbital elements,

1 16986U 86074A   16179.19657024  .00000618  00000-0  40231-4 0  9992
2 16986  82.5072 106.4587 0012957 108.9456 251.3177 15.06130841617418
Epoch (UTC): 27 June 2016 04:43:03
Eccentricity: 0.0012957
inclination: 82.5072°
perigee height: 539 km
apogee height: 557 km
right ascension of ascending node: 106.4587°
argument of perigee: 108.9456°
revolutions per day: 15.06130841
mean anomaly at epoch: 251.3177°
orbit number at epoch: 61741

The dashed part of the orbit path shows where the satellite is in the earth's shadow,  

DLR